Location: Roc des P�zouls
(43.9667°N, 3.5500°E)
Time: 02:11:33
(UTC+00:00)

COSMO-SKYMED 1 - Pass Details

Date: 14 November 2019
Orbit: 621 x 623 km, 97.9° (Epoch: 13 December)

Event Time Altitude Azimuth Distance (km) Brightness Sun altitude
Rises 04:16:42 0° 144° (SE) 2,893 6.5 -25.6°
Reaches altitude 10° 04:19:01 10° 135° (SE) 1,991 5.7 -25.2°
Maximum altitude 04:22:57 35° 70° (ENE) 1,004 4.1 -24.4°
Drops below altitude 10° 04:26:56 10° 4° (N) 2,004 5.2 -23.7°
Sets 04:29:15 0° 356° (N) 2,915 5.9 -23.3°
Enters shadow 04:29:23 - 356° (N) 2,970 6.0 -23.3°
